This is the latest recevied weather packets stored in our database for station/object VU2IB-13. If no packets are shown the sender has not sent any weather packets the latest 10 day(s).
| Time | Temp. | Humidity | Pressure | Rain* | Wind** | Luminosity | Snow |
|---|---|---|---|---|---|---|---|
| 1787392948 | 34.44° C | 78% | 999.6 hPa | - | - | - | - |
| 1787392887 | 34.44° C | 78% | 999.5 hPa | - | - | - | - |
| 1787392826 | 34.44° C | 78% | 999.5 hPa | - | - | - | - |
| 1787392764 | 34.44° C | 78% | 999.6 hPa | - | - | - | - |
| 1787392703 | 34.44° C | 78% | 999.6 hPa | - | - | - | - |
| 1787392642 | 34.44° C | 77% | 999.5 hPa | - | - | - | - |
| 1787392580 | 34.44° C | 77% | 999.7 hPa | - | - | - | - |
| 1787392519 | 34.44° C | 77% | 999.6 hPa | - | - | - | - |
| 1787392458 | 34.44° C | 79% | 999.6 hPa | - | - | - | - |
| 1787392396 | 34.44° C | 76% | 999.7 hPa | - | - | - | - |
| 1787392334 | 34.44° C | 77% | 999.7 hPa | - | - | - | - |
| 1787392273 | 34.44° C | 77% | 999.8 hPa | - | - | - | - |
| 1787392211 | 34.44° C | 78% | 999.8 hPa | - | - | - | - |
| 1787392150 | 34.44° C | 80% | 999.7 hPa | - | - | - | - |
| 1787392088 | 34.44° C | 80% | 999.7 hPa | - | - | - | - |
| 1787392027 | 34.44° C | 82% | 999.7 hPa | - | - | - | - |
| 1787391966 | 34.44° C | 82% | 999.7 hPa | - | - | - | - |
| 1787391904 | 34.44° C | 82% | 999.7 hPa | - | - | - | - |
| 1787391841 | 34.44° C | 80% | 999.7 hPa | - | - | - | - |
| 1787391780 | 34.44° C | 80% | 999.8 hPa | - | - | - | - |
| 1787391719 | 34.44° C | 78% | 999.8 hPa | - | - | - | - |
| 1787391656 | 34.44° C | 80% | 999.8 hPa | - | - | - | - |
| 1787391592 | 34.44° C | 79% | 999.8 hPa | - | - | - | - |
| 1787391531 | 34.44° C | 78% | 1000 hPa | - | - | - | - |
| 1787391469 | 34.44° C | 81% | 1000 hPa | - | - | - | - |
* Rain since midnight (hover to see other rain measurements)
** Current wind speed in m/s (hover to see current wind gust speed)